Location: Highridge
(54.0333°N, 114.1333°W)
Time: 07:08:22
(UTC+00:00)

SO-50 - Pass Details

Date: 05 December 2023
Orbit: 608 x 660 km, 64.6° (Epoch: 02 March)

Event Time Altitude Azimuth Distance (km) Brightness Sun altitude
Exits shadow 13:02:42 43° 332° (NNW) 919 ? -21.5°
Drops below altitude 10° 13:07:01 10° 41° (NE) 2,040 ? -20.8°
Sets 13:09:24 0° 48° (NE) 2,942 ? -20.5°
